Location: Cucq
(50.4773°N, 1.6202°E)
Time: 09:56:26
(UTC+00:00)

Cosmos 1634 Rocket - Pass Details

Date: 07 August 2020
Orbit: 959 x 992 km, 82.9° (Epoch: 21 September)

Event Time Altitude Azimuth Distance (km) Brightness Sun altitude
Exits shadow 01:50:25 31° 199° (SSW) 1,640 4.6 -18.9°
Maximum altitude 01:53:36 77° 281° (W) 1,008 4.0 -18.6°
Drops below altitude 10° 01:59:52 10° 7° (N) 2,728 7.4 -18.1°
Sets 02:02:23 0° 10° (N) 3,675 8.3 -17.9°
